Location: Bartlow
(52.0833°N, 0.3167°E)
Time: 05:32:01
(UTC+00:00)

Meteor 2-17 Rocket - Pass Details

Date: 27 April 2024
Orbit: 934 x 957 km, 82.5° (Epoch: 25 May)

Event Time Altitude Azimuth Distance (km) Brightness Sun altitude
Exits shadow 02:03:11 29° 230° (SW) 1,648 5.2 -18.5°
Maximum altitude 02:05:59 49° 288° (WNW) 1,200 4.8 -18.3°
Drops below altitude 10° 02:11:53 10° 3° (N) 2,668 7.7 -17.7°
Sets 02:14:29 0° 9° (N) 3,614 8.6 -17.5°
